Location: Pasadena, ca
(34.1243°N, 118.1037°W)
Time: 10:02:26
(UTC-07:00)

Hubble Space Telescope - Visible Passes

Search period start: 23 May 2018 00:00
Search period end: 02 June 2018 00:00
Orbit: 537 x 541 km, 28.5° (Epoch: 22 May)

Date Brightness Start Highest point End Pass type
(mag) Time Alt. Az. Time Alt. Az. Time Alt. Az.
26 May 3.0 04:34:25 10° S 04:36:13 13° SSE 04:38:00 10° SE visible
27 May 2.8 04:24:26 13° S 04:25:47 15° SSE 04:28:14 10° ESE visible
28 May 2.5 04:14:31 17° S 04:15:20 18° SSE 04:18:15 10° ESE visible
29 May 2.3 04:04:35 21° S 04:04:55 22° SSE 04:08:08 10° ESE visible
30 May 2.1 03:54:39 25° SSE 03:54:39 25° SSE 03:57:56 10° ESE visible
31 May 2.0 03:44:43 27° SSE 03:44:43 27° SSE 03:47:41 10° ESE visible
01 Jun 2.1 03:34:49 27° SE 03:34:49 27° SE 03:37:24 10° ESE visible
01 Jun 1.5 05:10:46 10° WSW 05:14:35 37° S 05:18:25 10° ESE visible
